Regional Weather Roundup
Issued by NWS Huntsville, AL

Home | Current Version | Previous Version | Text Only | Print | Product List | Glossary On
Versions: 1 2 3 4 5 6 7 8 9 10 11 12 13 14 15 16 17 18 19 20 21 22 23 24 25 26 27
000
ASUS44 KHUN 302010
RWRHUN

WEATHER ROUNDUP FOR THE TENNESSEE VALLEY
NATIONAL WEATHER SERVICE HUNTSVILLE AL
300 PM CDT FRI SEP 30 2016

ALZ001>004-302100-
NORTHWEST ALABAMA

CITY           SKY/WX    TMP DP  RH WIND       PRES   REMARKS
COURTLAND HCN    N/A     72 N/A N/A W7          N/A
RUSSELLVILLE     N/A     72 N/A N/A MISG        N/A
SHOALS AIRPORT MOSUNNY   74  47  38 NW12      30.05F
SHOALS TVA RES   N/A     72 N/A N/A MISG        N/A
$$

ALZ005>007-016-302100-
NORTH CENTRAL ALABAMA

CITY           SKY/WX    TMP DP  RH WIND       PRES   REMARKS
CULLMAN AG STN   N/A     72 N/A N/A N6          N/A
DECATUR AP     SUNNY     70  52  52 W8G18     30.05F
HUNTSVILLE AP  MOSUNNY   72  50  45 VRB5      30.05F
MERIDIANVILLE  MOSUNNY   64  46  52 NW7       30.06F
REDSTONE ARSN  SUNNY     69  52  53 W7        30.04F
VINEMONT AP    FAIR      71  46  40 N5        30.06F
$$

ALZ008>010-302100-
NORTHEAST ALABAMA

CITY           SKY/WX    TMP DP  RH WIND       PRES   REMARKS
ALBERTVILLE    SUNNY     70  54  56 NW7       30.03F
FORT PAYNE     PTSUNNY   72  41  33 W9        30.01F
SCOTTSBORO AP  SUNNY     72  46  40 W5        30.03F
SCOTTSBORO HCN   N/A     72 N/A N/A MISG        N/A
VALLEY HEAD      N/A     70 N/A N/A MISG        N/A
$$

TNZ076-096-097-302100-
SOUTHEASTERN MIDDLE TENNESSEE

CITY           SKY/WX    TMP DP  RH WIND       PRES   REMARKS
TULLAHOMA      MOSUNNY   63  54  72 S8        30.07F
WINCHESTER     PTSUNNY   63  54  72 NW8       30.07S
$$

...SURROUNDING SITES...

CITY           SKY/WX    TMP DP  RH WIND       PRES   REMARKS
ATLANTA        MOSUNNY   73  47  39 NW12      30.03F
ANNISTON       PTSUNNY   75  43  31 SW10      30.03F
BIRMINGHAM     MOSUNNY   76  46  34 W9        30.06F
CHATTANOOGA    PTSUNNY   73  47  39 SW7       30.02F
CORINTH        FAIR      75  48  38 VRB5G13   30.03F
DALTON         SUNNY     70  46  43 W5        30.02F
GADSDEN        MOSUNNY   75  47  36 N9        30.03F
GOLDEN TRNGL   PTSUNNY   75  48  38 NW7       30.04F
HALEYVILLE     FAIR      73  47  39 CALM      30.06F
JACKSON TN     PTSUNNY  N/A N/A N/A W6        30.05F
MEMPHIS        PTSUNNY   74  55  51 W8        30.06F
NASHVILLE      CLOUDY    65  52  62 SW5       30.03F
OXFORD MS      FAIR      73  48  40 NW6       30.06F
ROME           PTSUNNY   75  45  34 W9        30.01F
SAVANNAH       PTSUNNY   70  52  52 NW7       30.04F
TUPELO         MOSUNNY   78  47  33 VRB7      30.02F
TUSCALOOSA     MOSUNNY   74  48  39 NW7       30.05F
$$

...GULF COAST WEATHER...

CITY           SKY/WX    TMP DP  RH WIND       PRES   REMARKS
GULFPORT       SUNNY     81  54  39 N6        30.04F
PASCAGOULA     SUNNY     81  57  43 N5        30.04F
MOBILE         MOSUNNY   79  55  43 NW6       30.05F
GULF SHORES    CLEAR     79  56  45 W7        30.03F
PENSACOLA      SUNNY     81  52  36 VRB3      30.02F
DESTIN         SUNNY     82  56  40 VRB5      30.01F
PANAMA CITY    SUNNY     80  55  42 NW10      30.01F
APPALACHICOLA  SUNNY     81  61  50 SW10      30.01F
$$





USA.gov is the U.S. government's official web portal to all federal, state and local government web resources and services.